Date,TemperatureHighF,TemperatureAvgF,TemperatureLowF,DewpointHighF,DewpointAvgF,DewpointLowF,HumidityHigh,HumidityAvg,HumidityLow,PressureMaxIn,PressureMinIn,WindSpeedMaxMPH,WindSpeedAvgMPH,GustSpeedMaxMPH,PrecipitationSumIn
2019-1-1,59.0,40.9,22.8,37.8,28.0,21.2,93,78,39,30.60,30.49,3,0,5,0.00
2019-1-2,53.4,37.1,20.8,36.5,27.2,19.2,94,80,48,30.55,30.38,6,1,9,0.01
2019-1-3,57.4,40.0,22.5,35.4,27.9,20.5,94,77,41,30.51,30.41,5,1,8,0.00
2019-1-4,35.8,28.8,21.9,30.4,24.4,20.3,94,92,81,30.56,30.48,2,0,5,0.00
2019-1-5,54.0,40.7,27.3,34.7,29.6,24.3,88,66,39,30.66,30.55,6,1,8,0.01
2019-1-6,56.5,37.3,18.1,33.1,24.6,16.3,93,77,40,30.60,30.44,7,1,9,0.00
2019-1-7,59.9,39.5,19.0,30.0,22.5,16.3,91,68,25,30.54,30.42,5,1,7,0.00
2019-1-8,55.6,38.3,21.0,30.9,24.7,17.8,89,70,37,30.54,30.38,5,1,6,0.00
2019-1-9,59.2,40.9,22.6,37.0,28.1,20.5,92,72,33,30.40,30.15,6,1,12,0.00
2019-1-10,49.1,36.2,23.2,30.0,22.5,15.3,91,63,28,30.30,30.16,17,3,23,0.00
2019-1-11,49.3,34.0,18.7,23.7,18.5,14.0,87,62,32,30.47,30.30,12,2,17,0.00
2019-1-12,54.0,36.9,19.8,33.8,24.7,17.1,91,73,45,30.54,30.42,9,1,15,0.00
2019-1-13,51.8,35.6,19.4,33.8,26.0,17.2,92,77,50,30.51,30.36,6,1,14,0.00
2019-1-14,59.7,41.2,22.6,38.3,28.6,20.5,93,77,45,30.40,30.22,3,0,5,0.00
2019-1-15,58.6,40.7,22.8,37.6,28.9,20.8,93,77,45,30.29,30.16,4,1,6,0.00
2019-1-16,53.1,37.6,22.1,38.3,29.7,20.1,93,82,56,30.23,30.10,8,1,14,0.00
2019-1-17,47.7,39.2,30.7,40.6,35.1,28.8,93,87,75,30.21,30.10,4,0,7,0.00
2019-1-18,46.8,34.3,21.9,33.6,26.9,19.9,93,81,54,30.25,30.13,5,0,9,0.00
2019-1-19,45.7,32.8,19.9,39.9,29.4,18.0,95,88,69,30.19,29.91,4,1,6,0.13
2019-1-20,51.8,43.6,35.4,41.2,37.7,31.3,96,81,55,30.12,29.83,8,1,15,0.22
2019-1-21,50.4,38.6,26.8,37.2,30.0,24.8,92,74,44,30.25,30.13,7,1,15,0.00
2019-1-22,48.6,36.9,25.3,39.2,30.5,23.0,92,83,59,30.25,29.98,15,2,19,0.00
2019-1-23,57.9,47.8,37.6,43.3,39.6,35.2,93,75,52,29.97,29.76,17,6,26,0.00
2019-1-24,61.3,50.0,38.8,43.2,39.9,34.7,87,69,47,30.00,29.78,8,2,19,0.00
2019-1-25,62.1,50.1,38.1,41.4,38.0,32.0,87,62,41,30.18,30.01,8,2,15,0.00
2019-1-26,58.5,42.5,26.4,37.8,31.4,24.4,94,75,41,30.23,30.10,6,1,10,0.00
2019-1-27,56.1,40.7,25.3,37.8,29.2,23.7,94,71,34,30.12,30.01,13,2,19,0.00
2019-1-28,57.0,41.5,25.9,38.1,32.5,22.8,91,70,47,30.15,30.04,15,4,23,0.00
2019-1-29,52.2,40.7,29.1,43.3,36.9,26.8,92,80,65,30.11,29.89,22,6,29,0.00
2019-1-30,51.6,45.5,39.4,42.8,34.8,28.2,92,69,41,29.98,29.77,14,4,20,0.13
2019-1-31,57.7,51.5,45.3,49.1,47.3,42.8,94,85,71,29.76,29.50,22,7,28,0.02
2019-2-1,51.6,45.7,39.7,48.2,40.6,34.7,92,82,59,29.50,29.32,20,11,34,0.10
2019-2-2,46.9,39.8,32.7,35.1,29.9,26.2,84,68,46,30.15,29.50,21,5,30,0.00
2019-2-3,48.4,39.1,29.8,27.1,25.6,23.0,85,60,40,30.46,30.15,9,2,15,0.00
2019-2-4,52.5,37.0,21.4,30.7,25.8,19.2,91,73,40,30.53,30.42,6,1,9,0.00
2019-2-5,60.6,42.8,25.0,39.0,30.7,23.0,92,74,42,30.54,30.40,6,1,11,0.00
2019-2-6,62.6,44.8,27.0,41.9,33.7,25.2,94,76,42,30.45,30.27,6,1,10,0.00
2019-2-7,61.5,44.8,28.0,42.1,33.1,26.6,94,76,39,30.33,30.23,7,1,9,0.00
2019-2-8,61.3,43.6,25.9,39.5,32.1,24.2,93,76,38,30.32,30.20,13,3,13,0.00
2019-2-9,60.3,43.5,26.6,43.4,34.5,24.8,93,76,47,30.33,30.20,8,2,8,0.00
2019-2-10,55.9,44.1,32.2,46.8,39.4,30.0,94,83,68,30.31,30.24,17,5,27,0.00
2019-2-11,59.5,49.2,39.0,47.3,36.7,25.3,96,69,27,30.47,30.27,12,3,16,0.00
2019-2-12,63.3,44.3,25.3,38.1,31.9,23.0,92,69,37,30.55,30.44,7,1,9,0.00
2019-2-13,65.3,46.8,28.2,40.1,30.0,20.5,93,65,20,30.52,30.40,5,1,12,0.00
2019-2-14,62.2,46.5,30.9,38.1,32.6,25.3,85,61,37,30.54,30.39,12,2,16,0.00
2019-2-15,65.8,46.7,27.5,41.9,34.0,25.5,92,75,40,30.48,30.30,5,1,10,0.00
2019-2-16,64.8,48.2,31.6,37.6,31.2,22.5,93,59,27,30.41,30.26,14,4,18,0.00
2019-2-17,66.0,47.0,28.0,37.8,23.7,14.4,69,42,20,30.33,30.13,8,2,13,0.00
2019-2-18,62.4,49.6,36.7,39.2,36.0,31.5,87,64,35,30.17,30.05,10,2,15,0.00
2019-2-19,61.7,46.2,30.6,39.0,34.8,28.4,93,71,40,30.21,30.10,6,1,8,0.00
2019-2-20,62.2,45.5,28.9,40.1,33.7,26.4,92,70,41,30.34,30.21,7,1,8,0.00
2019-2-21,67.6,47.8,27.9,40.6,31.0,25.7,93,64,22,30.51,30.35,6,1,10,0.00
2019-2-22,69.4,48.3,27.3,35.2,26.8,23.5,88,58,18,30.57,30.44,7,1,8,0.00
2019-2-23,69.4,46.9,24.4,35.1,27.4,20.3,86,58,22,30.52,30.35,4,1,7,0.00
2019-2-24,69.4,49.2,28.9,36.7,32.1,25.3,88,59,27,30.53,30.42,11,1,13,0.00
2019-2-25,68.7,50.5,32.4,39.0,34.4,28.8,87,61,31,30.55,30.39,6,1,11,0.00
2019-2-26,72.1,51.2,30.4,37.2,30.5,26.2,89,56,19,30.48,30.37,9,2,11,0.00
2019-2-27,73.9,51.3,28.8,32.7,27.7,23.4,82,50,18,30.45,30.32,5,1,8,0.00
2019-2-28,68.7,48.3,28.0,36.5,30.4,23.9,86,57,26,30.47,30.32,7,2,11,0.00
2019-3-1,69.1,49.2,29.3,37.4,32.0,26.2,88,58,25,30.36,30.19,5,1,8,0.00
2019-3-2,69.6,51.9,34.2,39.9,34.3,30.2,85,58,26,30.35,30.24,7,1,12,0.00
2019-3-3,73.2,51.2,29.3,42.3,35.6,26.2,90,62,25,30.34,30.12,10,2,15,0.00
2019-3-4,62.2,50.5,38.8,48.6,42.1,33.6,88,73,54,30.18,30.07,18,4,24,0.00
2019-3-5,63.1,54.5,45.9,46.4,41.5,39.6,80,65,45,30.13,29.93,13,2,17,0.00
2019-3-6,58.6,51.2,43.9,50.0,44.9,39.0,95,75,58,29.95,29.64,20,6,31,0.28
2019-3-7,56.5,45.7,34.9,40.3,37.2,32.5,93,74,41,30.11,29.95,9,2,13,0.00
2019-3-8,62.8,50.3,37.8,44.1,39.5,35.8,93,75,41,30.41,30.11,6,1,9,0.00
2019-3-9,68.2,50.0,31.8,42.4,37.2,30.0,94,69,36,30.55,30.41,5,1,7,0.00
2019-3-10,74.5,54.0,33.4,47.1,40.4,31.6,93,68,29,30.51,30.33,8,1,10,0.00
2019-3-11,69.3,53.6,37.9,47.1,38.6,32.9,92,64,27,30.45,30.35,16,2,19,0.00
2019-3-12,73.0,52.4,31.8,46.2,37.6,27.9,86,61,32,30.43,30.19,14,4,19,0.00
2019-3-13,60.8,51.7,42.6,43.9,34.2,23.4,85,54,26,30.44,30.21,13,3,31,0.00
2019-3-14,65.5,47.2,28.8,34.9,29.0,24.8,87,56,23,30.50,30.35,7,2,11,0.00
2019-3-15,75.9,52.7,29.5,34.0,29.1,25.3,86,52,16,30.42,30.25,5,1,9,0.00
2019-3-16,79.7,55.3,30.9,38.7,32.0,26.8,84,49,16,30.31,30.04,7,2,11,0.00
2019-3-17,70.3,52.2,34.2,41.2,33.9,28.9,85,53,23,30.13,30.00,13,4,20,0.00
2019-3-18,61.3,49.1,36.9,36.9,28.1,20.7,68,45,22,30.29,30.14,20,7,28,0.00
2019-3-19,60.4,48.0,35.6,33.6,30.3,26.1,75,50,31,30.37,30.22,21,5,26,0.00
2019-3-20,60.3,45.3,30.4,32.4,28.8,25.5,83,54,28,30.40,30.28,8,2,14,0.00
2019-3-21,62.6,46.9,31.3,34.3,29.3,25.9,85,51,26,30.44,30.27,13,2,20,0.00
2019-3-22,67.3,49.0,30.6,36.1,30.1,25.3,81,52,28,30.42,30.25,12,2,14,0.00
2019-3-23,67.5,50.3,33.1,42.1,35.8,29.3,87,58,31,30.36,30.19,12,2,15,0.00
2019-3-24,72.7,57.0,41.4,40.5,35.3,30.7,81,48,23,30.28,30.12,17,3,18,0.00
2019-3-25,71.8,52.9,34.0,37.2,30.6,25.0,80,48,20,30.22,30.02,13,3,18,0.00
2019-3-26,73.0,53.6,34.2,35.1,31.3,28.0,78,45,20,30.17,30.00,12,4,18,0.00
2019-3-27,70.9,52.2,33.4,37.4,31.6,26.8,89,52,20,30.29,30.16,9,2,17,0.00
2019-3-28,70.2,51.8,33.4,29.5,25.0,19.9,73,39,16,30.39,30.22,9,2,12,0.00
2019-3-29,66.2,52.0,37.8,34.9,29.5,23.5,62,41,25,30.32,30.15,12,4,16,0.00
2019-3-30,68.5,53.7,38.8,40.6,35.2,30.4,79,52,30,30.21,29.99,13,4,22,0.00
2019-3-31,53.2,50.6,48.0,48.0,42.4,36.1,92,74,58,30.05,29.90,7,2,13,0.13
2019-4-1,64.9,56.2,47.5,49.1,47.0,45.3,93,81,51,30.01,29.92,7,1,8,0.01
2019-4-2,67.8,56.3,44.8,52.0,46.6,43.0,93,78,41,30.03,29.91,9,2,14,0.15
2019-4-3,63.1,50.3,37.6,47.8,37.5,23.5,96,66,30,29.92,29.64,15,3,19,0.01
2019-4-4,61.0,48.2,35.4,33.6,26.9,16.5,81,49,20,29.74,29.56,9,1,14,0.00
2019-4-5,49.3,43.1,36.9,42.6,38.5,30.7,92,80,58,29.65,29.50,17,3,31,0.28
2019-4-6,52.7,44.2,35.6,41.4,37.0,33.8,94,79,53,29.77,29.64,20,6,28,0.08
2019-4-7,56.1,48.1,40.1,45.0,38.8,33.1,90,74,45,30.00,29.78,14,5,21,0.04
2019-4-8,63.0,55.2,47.5,49.3,44.4,37.9,94,74,42,29.99,29.87,13,4,19,0.09
2019-4-9,54.9,49.1,43.2,43.0,40.6,38.3,88,74,58,29.99,29.90,16,5,24,0.13
2019-4-10,59.2,49.0,38.8,42.8,38.3,34.9,92,70,42,30.05,29.93,12,4,20,0.01
2019-4-11,63.1,47.4,31.8,40.6,34.4,27.7,94,63,27,30.15,30.05,11,2,21,0.00
2019-4-12,66.7,49.2,31.8,38.8,33.0,28.4,92,59,24,30.16,30.03,10,1,13,0.00
2019-4-13,73.6,53.0,32.4,37.2,28.3,10.0,89,51,9,30.17,30.05,7,1,12,0.00
2019-4-14,75.6,57.0,38.5,49.6,41.5,30.7,79,58,37,30.10,29.96,8,2,13,0.00
2019-4-15,79.2,63.3,47.5,54.1,46.2,32.7,90,62,23,30.01,29.80,22,5,26,0.00
2019-4-16,74.8,56.8,38.8,47.3,40.5,32.9,92,59,23,30.10,29.93,9,2,18,0.00
2019-4-17,77.4,63.9,50.4,50.2,46.3,43.5,80,58,31,29.99,29.73,15,6,36,0.00
2019-4-18,58.8,54.2,49.6,50.2,48.4,46.6,95,87,72,29.95,29.85,12,3,15,1.06
2019-4-19,53.1,50.8,48.4,48.2,47.0,45.7,94,90,82,30.15,29.93,14,4,17,0.51
2019-4-20,62.1,54.5,46.9,48.7,46.3,44.1,95,76,53,30.13,29.99,17,5,23,0.13
2019-4-21,55.6,50.3,45.1,46.9,44.5,43.0,93,80,65,30.09,29.80,17,4,20,0.07
2019-4-22,66.0,55.0,43.9,48.7,45.7,42.3,94,74,48,29.80,29.50,7,1,14,0.00
2019-4-23,57.4,50.7,43.9,48.2,44.4,36.9,92,79,46,29.66,29.43,14,4,25,0.12
2019-4-24,59.2,50.1,41.0,51.3,44.1,37.0,95,83,67,29.76,29.67,22,6,35,0.27
2019-4-25,56.5,50.9,45.3,51.3,44.3,40.1,95,78,59,30.11,29.73,18,6,24,0.35
2019-4-26,64.8,51.9,39.0,44.6,40.2,36.7,92,69,38,30.33,30.11,8,1,15,0.00
2019-4-27,74.1,55.0,36.0,50.4,40.9,34.2,94,71,31,30.38,30.24,6,1,9,0.00
2019-4-28,79.2,60.6,42.1,53.6,46.5,40.3,94,67,32,30.27,30.05,9,2,13,0.00
2019-4-29,80.8,62.5,44.2,51.1,46.4,41.0,92,62,27,30.10,29.94,4,1,9,0.00
2019-4-30,82.0,64.2,46.4,54.0,48.5,44.1,92,62,28,30.03,29.88,7,1,15,0.00
2019-5-1,82.0,66.1,50.2,55.4,50.1,43.5,91,61,30,29.92,29.78,10,2,15,0.00
2019-5-2,79.9,65.5,51.1,53.4,49.9,45.1,89,61,31,29.92,29.79,15,3,19,0.00
2019-5-3,70.7,59.9,49.1,51.3,44.1,36.7,86,58,35,29.92,29.78,16,5,25,0.00
2019-5-4,75.7,56.5,37.4,43.9,37.4,32.0,89,54,23,29.99,29.88,9,2,14,0.00
2019-5-5,77.5,61.2,45.0,45.5,39.9,35.8,81,51,26,30.04,29.94,8,2,14,0.00
2019-5-6,78.8,59.1,39.4,48.4,41.0,35.6,88,54,27,30.10,29.96,9,2,15,0.00
2019-5-7,76.8,61.9,46.9,53.6,48.3,43.3,88,60,36,30.06,29.93,15,3,21,0.00
2019-5-8,68.5,63.3,58.1,55.9,53.8,52.3,87,73,59,29.96,29.86,17,6,22,0.00
2019-5-9,74.1,60.9,47.8,58.1,49.8,42.1,84,65,43,29.99,29.89,14,5,24,0.00
2019-5-10,78.1,67.7,57.2,59.2,55.4,52.5,94,70,44,30.01,29.93,15,5,22,0.02
2019-5-11,82.8,65.7,48.6,54.9,45.9,33.8,91,54,19,30.18,30.02,9,2,13,0.00
2019-5-12,83.5,63.8,44.2,44.6,34.7,19.0,84,42,10,30.27,30.11,12,3,17,0.00
2019-5-13,86.7,64.1,41.5,42.8,35.0,22.6,80,40,13,30.16,29.95,16,3,21,0.00
2019-5-14,87.8,69.9,52.0,52.0,37.8,22.8,61,33,19,30.07,29.86,11,3,21,0.00
2019-5-15,95.2,70.1,45.1,47.7,40.5,27.5,86,45,11,29.90,29.75,6,1,15,0.00
2019-5-16,88.2,70.2,52.2,54.0,47.8,36.5,85,49,21,29.83,29.53,17,5,31,0.00
2019-5-17,66.9,58.7,50.4,45.9,38.7,32.9,68,49,30,29.83,29.64,19,7,30,0.00
2019-5-18,66.0,56.0,45.9,41.4,34.8,28.8,80,48,25,29.88,29.81,11,2,18,0.00
2019-5-19,70.0,54.3,38.7,40.3,35.5,29.5,83,51,23,29.92,29.83,7,1,12,0.00
2019-5-20,75.6,57.7,39.7,43.3,37.4,30.0,87,52,20,29.95,29.85,8,1,11,0.00